Regional Weather Roundup
Issued by NWS

Home | Current Version | Previous Version | Graphics & Text | Print | Product List | Glossary On
Versions: 1 2 3 4 5 6 7 8 9 10 11 12 13 14 15 16 17 18 19 20 21 22 23 24 25 26 27 28 29 30 31 32 33 34 35 36 37 38 39 40 41 42 43 44 45 46 47 48 49 50
262
ASUS43 KIND 221409
RWRIN

WEATHER ROUNDUP FOR INDIANA
NATIONAL WEATHER SERVICE INDIANAPOLIS IN
900 AM EST MON JAN 22 2018

NOTE: "FAIR" INDICATES FEW OR NO CLOUDS BELOW 12,000 FEET WITH NO
SIGNIFICANT WEATHER AND/OR OBSTRUCTIONS TO VISIBILITY.

* - STATION DOES NOT REPORT WEATHER SUCH AS PRECIPITATION OR FOG.

+ - STATION NOT QUALITY CONTROLLED BY THE NATIONAL WEATHER SERVICE.
    USE DATA WITH CAUTION...ESPECIALLY DEWPOINT AND RELATIVE
    HUMIDITY OBSERVATIONS.

INZ001>003-010>013-019-020-221500-
NORTHWEST INDIANA

CITY           SKY/WX    TMP DP  RH WIND       PRES   REMARKS
GARY /AIRPORT/ LGT RAIN  52  50  93 SE10      29.60F
KNOX *+        CLOUDY    48  46  93 S16       29.69R
LA PORTE +     RAIN      47  46  97 S13G18    29.67F
MICHIGAN CITY+ LGT RAIN  48  48 100 S12G18    29.65F
MONTICELLO +   RAIN      49  47  95 S13G23    29.68F
RENSSELAER +   RAIN      50  45  81 S21       29.67F
VALPARAISO     RAIN      50  47  89 S16G22    29.63F FOG

$$

LMZ046-743>745-221500-
SOUTHERN LAKE MICHIGAN

STATION/POSITION TIME  TEMP    WIND        PRES    WAVE
                       AIR SEA DIR/SP/G            HT
                 (UTC) (F)     (DEG/KT/KT) (MB)    (FT)
BURNS HARBOR     1340   51     170/ 11/ 22 1003.7F
MICHIGAN CITY    1340   50     150/ 15/ 18   N/A

$$

INZ004-005-014>016-021>024-221500-
NORTH CENTRAL INDIANA

CITY           SKY/WX    TMP DP  RH WIND       PRES   REMARKS
ELKHART        DRIZZLE   50  46  87 SW8       29.71S
GOSHEN         MOCLDY    51  45  79 S15       29.69F
LOGANSPORT +   LGT RAIN  46  45  93 S15G24    29.75R
PERU/GRISSOM   LGT RAIN  51  51 100 S22G36    29.75R
ROCHESTER +    LGT RAIN  52  46  82 S17G28    29.74R
SOUTH BEND     LGT RAIN  48  45  89 SE12      29.70S FOG
WARSAW +       CLOUDY    52  45  76 S10G17    29.72R

$$

INZ006>009-017-018-025>027-221500-
NORTHEAST INDIANA

CITY           SKY/WX    TMP DP  RH WIND       PRES   REMARKS
AUBURN +       FAIR     N/A N/A N/A SE6       29.76F
FORT WAYNE     CLOUDY    50  45  83 S13       29.76F
HUNTINGTON +   CLOUDY    51  45  79 S12       29.75S
KENDALLVILLE + MOCLDY    47  47 100 SE13      29.73F

$$

INZ028-029-035-036-043>045-051>053-221500-
WEST CENTRAL INDIANA

CITY           SKY/WX    TMP DP  RH WIND       PRES   REMARKS
CRAWFORDSVL +  LGT RAIN  47  47 100 MISG      29.76F
GREENCASTLE +  RAIN      50  46  87 S10G17    29.79F
LAFAYETTE      HVY RAIN  49  48  97 S14G25    29.68F FOG
TERRE HAUTE    LGT RAIN  49  47  93 SE16      29.75F FOG

$$

INZ030>032-037>040-046>048-054>057-064-065-221500-
CENTRAL INDIANA

CITY           SKY/WX    TMP DP  RH WIND       PRES   REMARKS
ANDERSON       CLOUDY    54  45  71 S12G23    29.79
COLUMBUS       CLOUDY    52  43  71 S16       29.82R
FRANKFORT +    RAIN      51  48  90 S18G28    29.77F
INDIANAPOLIS   LGT RAIN  49  46  90 S10       29.83R
-EAGLE CREEK   LGT RAIN  50  45  83 S7        29.81R
MARION +       CLOUDY    51  44  78 S18       29.77R
MT COMFORT *+  CLOUDY    50  46  87 SW14G21   29.84R
SHELBYVILLE    NOT AVBL
ZIONSVILLE +   LGT RAIN  48  46  90 S13       29.81R

$$

INZ033-034-041-042-049-050-058-059-221500-
EAST CENTRAL INDIANA

CITY           SKY/WX    TMP DP  RH WIND       PRES   REMARKS
MUNCIE         FAIR      54  44  69 S17G25    29.78S
RICHMOND +     FAIR      45  43  93 SE12      29.84F

$$

INZ060-061-067>069-081>083-085>088-221500-
SOUTHWEST INDIANA

CITY           SKY/WX    TMP DP  RH WIND       PRES   REMARKS
EVANSVILLE     HVY RAIN  52  51  97 S12       29.82F FOG
HUNTINGBURG +  LGT RAIN  51  48  89 S8        29.85F
WASHINGTON +   RAIN      51  49  92 S20G28    29.81F

$$

INZ062-063-066-070>080-084-089>092-221500-
SOUTH CENTRAL AND SOUTHEAST INDIANA

CITY           SKY/WX    TMP DP  RH WIND       PRES   REMARKS
BATESVILLE *+    N/A    N/A N/A N/A MISG        N/A
BEDFORD +      RAIN      54  46  76 SW9G17    29.86
BLOOMINGTON    RAIN      54  48  80 S18G35    29.82F
FRENCH LICK *+ CLOUDY    52  50  93 SW8       29.87R
MADISON *+     FAIR      54  41  62 S12G18    29.86S
NORTH VERNON + MOCLDY    54  43  66 S14       29.83S
SEYMOUR +      CLOUDY    54  43  66 S9        29.83R

$$





USA.gov is the U.S. government's official web portal to all federal, state and local government web resources and services.